COSMOS 1823 DEB, 39824

Orbit data source: Space-Track

COSMOS 1823 DEB, 39824 is space debris in LEO originally from a launch on Fri, 20 Feb 1987 UTC launched from the Plesetsk Missile And Space Complex (PKMTR). Debris objects in space refer to the collection of defunct objects orbiting the Earth. Examples of debris include non-operational satellites, rocket bodies, and fragments generated from explosions, collisions, or faulty payload assembly.

Loading next visibility...
Identifier
39824, 1987-020EY
Orbit
LEO
Country
Flag of CISCIS
Related business
Manufacturer
Unknown
Mission
Spacecraft
Bus & Motor
Unknown
Mass
Unknown
Launch date (UTC)
1987-02-20 (39 years ago)
Launch vehicle
Unknown
Launch site
Plesetsk Missile And Space Complex (PKMTR)
Object type
Payload
Rocket body
Debris
Shape & HBR
Unknown shape, 0.1 m
Radar Cross Section
Small (<0.1 m²)

Expand to show TLE details & history
Last TLE update: 3 weeks ago

TLE from 3 weeks ago
0 COSMOS 1823 DEB
1 39824U 87020EY  26152.28907706  .00000280  00000-0  20491-2 0  9996
2 39824  73.6184 357.6447 0036976 134.3544 338.9121 12.46296419965144
Epoch: 2026-06-01T06:56Z
TLE epoch observation values (Epoch: 2026-06-01T06:56:16.257Z)
Latitude
62.02748°
Longitude
150.37712°
Altitude
1,463.156 km
Speed
7.149 km/s
True Right ascension
09h 36m 53s
True Declination
61° 53' 51"
Sunlit
Object was in daylight at epoch
Visualization orbit readout
Latitude
Unknown
Longitude
Unknown
Altitude
Unknown
Speed
Unknown
Apparent Right ascension
Unknown
Apparent Declination
Unknown
Sunlit
N/A
Visualization observer readout
Local Sidereal Time
06:46:53
Azimuth
Unknown
Elevation
Unknown
Doppler factor
Unknown
Orbital elements
Apogee altitude
1,506.944 km
Perigee altitude
1,448.848 km
Semi-major axis
7,856.033 km
Eccentricity
0.0037
Inclination
73.6184°
RAAN
357.6447°
Arg. of periapsis
134.3544°
True anomaly
338.75899°
Mean anomaly
338.9121°
Eccentric anomaly
338.83561°
Mean motion
3.11701 °/min
Orbital period
115.5 mins
BSTAR
0.0020491
Loading maneuver chart data...
Computing Atmospheric mass density...

Documentation

Showing up to 5 results
|